Kuiper-00108

operational
NORAD ID: 65146 Int'l Des: 2025-171 Owner: KUIP Country: US Constellation: kuiper
LEOCIRCULAR

Kuiper-00108について

説明を読み込み中...

リアルタイム位置

3D地球を読み込み中...

次回通過

高度履歴

Altitude vs Time

uPlot chart will show altitude changes over time

軌道要素

1 65146U 25171Q 25304.00002315 -.00676390 00000-0 -36153-1 0 9995
2 65146 51.8844 17.8388 0005720 51.9925 287.6120 15.16926590 5199
Epoch: Oct 31, 2025 • Age: 6 hours

現在のステータス

高度 520.7 km
速度 7.60 km/s
衛星直下点 -19.57°S, 133.9°W
打ち上げ日 Aug 11, 2025
運用期間 0.2 years
タイプ internet

技術仕様

分類 Payload
質量 490.00 kg
乾燥質量 490.00 kg
総質量 490.00 kg
長さ 1.80 m
直径 0.70 m
スパン 5.00 m
形状 Box + 2 pan
製造者 KUIP
バスタイプ Kuiper
フェーズステータス In Orbit
所有者/国 KUIP/US

大規模コンステレーション

Loading constellations...